Mt. Pocono, PA

4:24 PM EST on December 09, 2019 (GMT -0500)
Pocono Mountains Municipal

Weather History for KMPO - October, 2019

Change the Weather History Date:

Thursday, October 17, 2019

  Actual Average Record
Temperature  
Mean Temperature 44 °F 48 °F  
Max Temperature 46 °F 57 °F 82 °F (1908)
Min Temperature 41 °F 38 °F 16 °F (1916)
Degree Days  
Heating Degree Days 22 17  
Month to date heating degree days 218 253  
Since 1 July heating degree days 396 521  
Cooling Degree Days 0 0  
Month to date cooling degree days 5 0  
Year to date cooling degree days 348 313  
Moisture  
Dew Point 40 °F    
Average Humidity 90    
Maximum Humidity 100    
Minimum Humidity 76    
Precipitation  
Precipitation 0.08 in 0.14 in 1.96 in (1977)
Month to date precipitation 3.46 2.45  
Year to date precipitation 39.68 38.79  
Sea Level Pressure  
Sea Level Pressure 29.43 in    
Wind  
Wind Speed 21 mph ()    
Max Wind Speed 35 mph    
Max Gust Speed 43 mph    
Visibility 8.5 miles    
Events Rain    
T = Trace of Precipitation, MM = Missing Value Source: Averaged Metar Reports

Daily Weather History Graph

Daily Weather History Graph

Search for Another Location

Airport or City:

Astronomy

Oct. 17, 2019 Rise Set
Actual Time 7:15 AM EDT 6:18 PM EDT
Civil Twilight 6:47 AM EDT 6:45 PM EDT
Nautical Twilight 6:15 AM EDT 7:17 PM EDT
Astronomical Twilight 5:43 AM EDT 7:49 PM EDT
Moon 8:46 PM EDT (10/17) 10:46 AM EDT (10/17)
Length of Visible Light 11h 58m
Length of Day
11h 03m
Waning Gibbous, 87% of the Moon is Illuminated
Oct 17
Waning Gibbous
Oct 21
Last Quarter
Oct 27
New
Nov 4
First Quarter
Nov 12
Full

Hourly Weather History & Observations

Time (EDT) Temp. Windchill Dew Point Humidity Pressure Visibility Wind Dir Wind Speed Gust Speed Precip Events Conditions
5:53 AM 42.1 °F 32.1 °F 39.0 °F 89% 29.31 in 10.0 mi West 25.3 mph 35.7 mph N/A   Overcast
6:53 AM 41.0 °F 31.6 °F 37.9 °F 89% 29.31 in 10.0 mi West 20.7 mph 31.1 mph N/A   Overcast
7:53 AM 41.0 °F 30.7 °F 39.0 °F 93% 29.31 in 10.0 mi West 25.3 mph 38.0 mph 0.00 in Rain Light Rain
8:36 AM 41.0 °F 30.5 °F 39.0 °F 93% 29.32 in 8.0 mi West 26.5 mph 36.8 mph 0.00 in Rain Light Rain
8:53 AM 41.0 °F 31.1 °F 39.9 °F 96% 29.34 in 6.0 mi West 23.0 mph 35.7 mph 0.01 in Rain Light Rain
9:53 AM 41.0 °F 31.1 °F 39.9 °F 96% 29.34 in 8.0 mi West 23.0 mph 35.7 mph 0.01 in Rain Light Rain
10:28 AM 41.0 °F 30.5 °F 39.9 °F 96% 29.31 in 10.0 mi West 26.5 mph 35.7 mph 0.01 in Rain Light Rain
10:53 AM 42.1 °F 31.7 °F 39.9 °F 92% 29.33 in 10.0 mi West 27.6 mph 36.8 mph 0.02 in Rain Light Rain
11:53 AM 43.0 °F 32.7 °F 41.0 °F 93% 29.36 in 6.0 mi West 28.8 mph 39.1 mph 0.00 in Rain Light Rain
12:21 PM 43.0 °F 33.1 °F 41.0 °F 93% 29.35 in 5.0 mi West 26.5 mph 39.1 mph 0.01 in Rain Light Rain
12:42 PM 43.0 °F 33.5 °F 42.1 °F 97% 29.35 in 4.0 mi West 24.2 mph 39.1 mph 0.02 in Rain Light Rain
12:53 PM 43.0 °F 34.0 °F 42.1 °F 97% 29.38 in 6.0 mi West 21.9 mph 34.5 mph 0.02 in Rain Light Rain
1:24 PM 44.1 °F 35.2 °F 42.1 °F 93% 29.37 in 6.0 mi West 23.0 mph 42.6 mph 0.00 in Rain Light Rain
1:53 PM 44.1 °F 35.9 °F 42.1 °F 93% 29.40 in 8.0 mi West 19.6 mph 34.5 mph 0.01 in Rain Light Rain
2:26 PM 44.1 °F 34.8 °F 42.1 °F 93% 29.40 in 6.0 mi West 25.3 mph 36.8 mph 0.01 in Rain Light Rain
2:38 PM 44.1 °F 35.4 °F 41.0 °F 89% 29.40 in 10.0 mi West 21.9 mph 36.8 mph 0.01 in Rain Light Rain
2:53 PM 44.1 °F 34.8 °F 39.9 °F 85% 29.44 in 10.0 mi West 25.3 mph 40.3 mph 0.01 in Rain Light Rain
3:53 PM 45.0 °F 36.6 °F 39.0 °F 80% 29.46 in 10.0 mi West 21.9 mph 31.1 mph 0.00 in   Overcast
4:53 PM 46.0 °F 37.8 °F 39.0 °F 76% 29.48 in 10.0 mi WNW 23.0 mph 40.3 mph N/A   Overcast
5:53 PM 44.1 °F 36.2 °F 39.9 °F 85% 29.51 in 9.0 mi West 18.4 mph 35.7 mph 0.00 in Rain Light Rain
6:53 PM 43.0 °F 35.1 °F 39.9 °F 89% 29.54 in 10.0 mi WNW 17.3 mph 32.2 mph 0.00 in   Overcast
7:53 PM 43.0 °F 33.8 °F 39.9 °F 89% 29.57 in 10.0 mi West 23.0 mph 31.1 mph N/A   Overcast
8:53 PM 44.1 °F 36.5 °F 39.9 °F 85% 29.61 in 10.0 mi West 17.3 mph - N/A   Overcast
9:53 PM 43.0 °F 33.5 °F 39.0 °F 86% 29.64 in 10.0 mi WNW 24.2 mph 34.5 mph N/A   Overcast
10:53 PM 43.0 °F 33.5 °F 37.9 °F 82% 29.66 in 10.0 mi West 24.2 mph 35.7 mph N/A   Overcast
11:53 PM 43.0 °F 34.0 °F 37.9 °F 82% 29.68 in 10.0 mi West 21.9 mph 33.4 mph N/A   Overcast